FW6949 Weather Reports


time (UTC)temp
C
wind
direction
speed
KPH
gust
KPH
rain 1hr
cm
rain 24hr
cm
rain mn
cm
humidity
%
barometer
mb
20260505112737 21 181 1.6 1.6 0.00 0.00 0.00 79 4233.6
20260505112235 21 219 1.6 3.2 0.00 0.00 0.00 79 4233.4
20260505111735 21 77 1.6 3.2 0.00 0.00 0.00 78 4233.6
20260505111231 21 191 3.2 3.2 0.00 0.00 0.00 78 4233.5
20260505110727 21 169 1.6 3.2 0.00 0.00 0.00 78 4233.4
20260505110224 21 225 1.6 1.6 0.00 0.00 0.00 78 4233.6
20260505102200 21 203 3.2 4.8 0.00 0.00 0.00 77 4233.3
20260505101659 21 218 4.8 4.8 0.00 0.00 0.00 77 4233.1
20260505101154 21 196 3.2 3.2 0.00 0.00 0.00 77 4233.3
20260505100650 21 204 1.6 1.6 0.00 0.00 0.00 77 4233.3
20260505100148 21 211 3.2 3.2 0.00 0.00 0.00 77 4233.3
20260505095643 21 217 3.2 3.2 0.00 0.00 0.00 77 4233.5
20260505095141 21 224 1.6 1.6 0.00 0.00 0.00 77 4233.3
20260505094637 21 248 3.2 3.2 0.00 0.00 0.00 77 4233.3
20260505094133 21 220 1.6 4.8 0.00 0.00 0.00 77 4233.3
20260505093630 21 105 3.2 3.2 0.00 0.00 0.00 77 4233.3
20260505093127 21 203 4.8 4.8 0.00 0.00 0.00 77 4233.4
20260505092624 21 188 3.2 4.8 0.00 0.00 0.00 77 4233.2
20260505092123 21 229 3.2 3.2 0.00 0.00 0.00 77 4233.4
20260505091619 21 190 4.8 4.8 0.00 0.00 0.00 77 4233.3
20260505091118 21 189 1.6 1.6 0.00 0.00 0.00 77 4233.5
20260505090615 21 226 4.8 8.0 0.00 0.00 0.00 77 4233.5
20260505090113 21 188 3.2 3.2 0.00 0.00 0.00 77 4233.6
20260505085610 21 203 1.6 1.6 0.00 0.00 0.00 77 4233.5
20260505085109 21 200 3.2 3.2 0.00 0.00 0.00 77 4233.5
20260505084606 21 200 3.2 3.2 0.00 0.00 0.00 77 4233.7
20260505084104 21 151 1.6 1.6 0.00 0.00 0.00 77 4233.7
20260505083601 21 181 0.0 1.6 0.00 0.00 0.00 77 4233.5
20260505083057 21 157 1.6 3.2 0.00 0.00 0.00 77 4233.7
20260505082553 21 186 1.6 1.6 0.00 0.00 0.00 77 4233.6
20260505082050 21 223 1.6 1.6 0.00 0.00 0.00 77 4233.7
20260505081547 21 129 3.2 3.2 0.00 0.00 0.00 77 4233.8
20260505081044 21 340 3.2 3.2 0.00 0.00 0.00 77 4233.8
20260505080540 21 197 1.6 1.6 0.00 0.00 0.00 77 4233.9
20260505080037 21 151 3.2 3.2 0.00 0.00 0.00 77 4234.0
20260505075533 21 109 3.2 3.2 0.00 0.00 0.00 76 4233.9
20260505075030 21 222 6.4 8.0 0.00 0.00 0.00 77 4233.9
20260505074527 21 125 1.6 3.2 0.00 0.00 0.00 77 4233.8
20260505074024 21 188 1.6 3.2 0.00 0.00 0.00 76 4234.3
20260505073521 21 181 3.2 4.8 0.00 0.00 0.00 76 4234.1
20260505073020 21 176 1.6 1.6 0.00 0.00 0.00 76 4234.0
20260505072515 21 243 1.6 3.2 0.00 0.00 0.00 76 4234.1
20260505072011 21 50 1.6 3.2 0.00 0.00 0.00 76 4234.3
20260505071507 21 201 3.2 3.2 0.00 0.00 0.00 76 4234.3
20260505071005 21 212 3.2 3.2 0.00 0.00 0.00 76 4234.3
20260505070502 21 159 1.6 3.2 0.00 0.00 0.00 76 4234.3
20260505065957 21 170 1.6 1.6 0.00 0.00 0.00 75 4234.5
20260505065454 21 212 1.6 3.2 0.00 0.00 0.00 75 4234.6
20260505064951 21 176 1.6 1.6 0.00 0.00 0.00 74 4234.6
20260505064448 21 152 1.6 1.6 0.00 0.00 0.00 74 4234.5
20260505063946 21 191 1.6 1.6 0.00 0.00 0.00 74 4234.7
20260505063442 21 169 1.6 1.6 0.00 0.00 0.00 74 4234.7
20260505062939 21 186 3.2 3.2 0.00 0.00 0.00 74 4234.7
20260505062436 21 125 1.6 1.6 0.00 0.00 0.00 74 4234.6
20260505061932 21 140 3.2 3.2 0.00 0.00 0.00 74 4234.7
20260505061431 21 159 1.6 1.6 0.00 0.00 0.00 73 4234.9
20260505060928 21 191 1.6 1.6 0.00 0.00 0.00 73 4235.0
20260505060425 21 169 1.6 1.6 0.00 0.00 0.00 73 4234.9
20260505055921 21 159 1.6 3.2 0.00 0.00 0.00 73 4234.8
20260505055418 21 204 3.2 3.2 0.00 0.00 0.00 73 4235.1
20260505054914 21 187 3.2 4.8 0.00 0.00 0.00 72 4234.9
20260505054412 21 162 3.2 3.2 0.00 0.00 0.00 72 4234.9
20260505053910 21 201 1.6 3.2 0.00 0.00 0.00 72 4235.2
20260505053407 21 172 1.6 1.6 0.00 0.00 0.00 72 4235.3
20260505052903 21 166 3.2 3.2 0.00 0.00 0.00 72 4235.2
20260505052400 21 150 1.6 1.6 0.00 0.00 0.00 72 4235.2
20260505051857 21 174 1.6 3.2 0.00 0.00 0.00 71 4235.3
20260505051354 21 156 1.6 1.6 0.00 0.00 0.00 71 4235.5
20260505050853 21 203 1.6 1.6 0.00 0.00 0.00 71 4235.2
20260505050351 21 153 0.0 1.6 0.00 0.00 0.00 70 4235.1
20260505041318 21 156 1.6 1.6 0.00 0.00 0.00 68 4235.3
20260505040815 21 135 3.2 3.2 0.00 0.00 0.00 68 4235.2
20260505040313 21 168 1.6 1.6 0.00 0.00 0.00 67 4235.4
20260505035809 21 139 1.6 1.6 0.00 0.00 0.00 67 4235.4
20260505035305 21 146 1.6 1.6 0.00 0.00 0.00 66 4235.3
20260505034803 21 147 1.6 3.2 0.00 0.00 0.00 66 4235.6
20260505034259 21 134 1.6 1.6 0.00 0.00 0.00 65 4235.7
20260505033756 22 150 1.6 1.6 0.00 0.00 0.00 64 4235.6
20260505033253 22 144 1.6 1.6 0.00 0.00 0.00 63 4235.5
20260505032751 22 144 0.0 0.0 0.00 0.00 0.00 63 4235.6
20260505032247 22 150 0.0 0.0 0.00 0.00 0.00 63 4235.4
20260505031744 22 154 1.6 1.6 0.00 0.00 0.00 62 4235.4
20260505031241 22 128 0.0 1.6 0.00 0.00 0.00 63 4235.3
20260505030738 22 134 0.0 0.0 0.00 0.00 0.00 62 4235.3
20260505030234 22 143 0.0 0.0 0.00 0.00 0.00 62 4235.2
20260505025730 22 145 0.0 0.0 0.00 0.00 0.00 62 4235.3
20260505025228 22 141 0.0 1.6 0.00 0.00 0.00 62 4235.6
20260505024726 22 143 0.0 0.0 0.00 0.00 0.00 61 4235.3
20260505024223 22 138 0.0 1.6 0.00 0.00 0.00 61 4235.4
20260505023720 22 143 0.0 0.0 0.00 0.00 0.00 61 4235.3
20260505023217 22 140 0.0 1.6 0.00 0.00 0.00 61 4235.3
20260505022715 22 141 0.0 0.0 0.00 0.00 0.00 60 4235.4
20260505022211 22 150 1.6 1.6 0.00 0.00 0.00 60 4235.3
20260505021708 22 149 0.0 0.0 0.00 0.00 0.00 59 4235.3
20260505021205 22 139 0.0 1.6 0.00 0.00 0.00 59 4235.2
20260505020701 22 141 0.0 0.0 0.00 0.00 0.00 59 4235.4
20260505020156 22 146 0.0 0.0 0.00 0.00 0.00 58 4235.2
20260505015654 22 158 0.0 0.0 0.00 0.00 0.00 58 4235.2
20260505015150 23 152 1.6 1.6 0.00 0.00 0.00 57 4235.1
20260505014648 23 152 0.0 0.0 0.00 0.00 0.00 57 4235.1
20260505014145 23 145 1.6 1.6 0.00 0.00 0.00 57 4235.1
20260505013642 23 157 1.6 1.6 0.00 0.00 0.00 56 4235.1
20260505013139 23 135 1.6 1.6 0.00 0.00 0.00 56 4235.1
20260505012637 23 145 0.0 0.0 0.00 0.00 0.00 55 4235.1
20260505012134 23 144 1.6 1.6 0.00 0.00 0.00 54 4235.2
20260505011630 23 154 0.0 1.6 0.00 0.00 0.00 54 4235.1
20260505011127 23 150 1.6 1.6 0.00 0.00 0.00 53 4235.0
20260505010627 23 140 1.6 1.6 0.00 0.00 0.00 53 4235.1
20260505010125 24 150 0.0 1.6 0.00 0.00 0.00 52 4234.9
20260505005620 24 139 0.0 0.0 0.00 0.00 0.00 52 4235.0
20260505005118 24 178 1.6 1.6 0.00 0.00 0.00 52 4235.1
20260505004615 25 150 0.0 1.6 0.00 0.00 0.00 51 4234.7
20260505004112 25 152 1.6 3.2 0.00 0.00 0.00 51 4234.9
20260505003609 25 142 0.0 0.0 0.00 0.00 0.00 50 4235.0
20260505003106 25 146 0.0 0.0 0.00 0.00 0.00 49 4235.0
20260505002602 25 146 1.6 1.6 0.00 0.00 0.00 49 4235.3
20260505002101 25 136 1.6 1.6 0.00 0.00 0.00 49 4235.0
20260505001557 25 207 4.8 4.8 0.00 0.00 0.00 48 4235.2
20260505001055 25 141 1.6 3.2 0.00 0.00 0.00 48 4235.3
20260505000552 25 181 1.6 1.6 0.00 0.00 0.00 47 4235.1
20260505000049 25 142 1.6 1.6 0.00 0.00 0.00 47 4235.3
20260504235546 25 138 0.0 0.0 0.00 0.00 0.00 47 4235.2
20260504235043 25 175 1.6 1.6 0.00 0.00 0.00 46 4235.6
20260504234540 26 143 1.6 3.2 0.00 0.00 0.00 45 4235.5
20260504234037 26 187 3.2 3.2 0.00 0.00 0.00 45 4235.4
20260504233532 26 164 1.6 1.6 0.00 0.00 0.00 45 4235.5
20260504233029 26 118 0.0 0.0 0.00 0.00 0.00 44 4235.6
20260504232526 26 140 1.6 1.6 0.00 0.00 0.00 44 4235.8
20260504232024 26 166 1.6 1.6 0.00 0.00 0.00 43 4235.7
20260504231520 26 181 3.2 3.2 0.00 0.00 0.00 42 4235.5
20260504231016 26 159 1.6 3.2 0.00 0.00 0.00 44 4235.7
20260504230513 26 142 1.6 3.2 0.00 0.00 0.00 44 4235.6
20260504230012 26 133 1.6 1.6 0.00 0.00 0.00 43 4236.1
20260504225508 27 140 1.6 1.6 0.00 0.00 0.00 42 4236.0
20260504225005 27 167 1.6 3.2 0.00 0.00 0.00 41 4235.7
20260504224502 27 222 3.2 3.2 0.00 0.00 0.00 40 4236.1
20260504223959 27 148 1.6 1.6 0.00 0.00 0.00 39 4236.1
20260504223455 27 194 4.8 8.0 0.00 0.00 0.00 39 4236.2
20260504222951 27 218 4.8 8.0 0.00 0.00 0.00 40 4236.2
20260504222449 27 166 6.4 8.0 0.00 0.00 0.00 40 4236.3
20260504221946 28 193 4.8 8.0 0.00 0.00 0.00 38 4236.2
20260504221443 28 151 4.8 8.0 0.00 0.00 0.00 37 4236.3
20260504220940 28 199 6.4 11.3 0.00 0.00 0.00 37 4236.3
20260504220436 28 175 3.2 3.2 0.00 0.00 0.00 38 4236.4
20260504215934 28 176 3.2 3.2 0.00 0.00 0.00 39 4236.7
20260504215431 28 201 3.2 3.2 0.00 0.00 0.00 38 4236.3
20260504214927 28 218 4.8 8.0 0.00 0.00 0.00 37 4236.7
20260504214423 28 142 1.6 1.6 0.00 0.00 0.00 37 4236.6
20260504213920 28 196 3.2 8.0 0.00 0.00 0.00 37 4236.9
20260504213416 28 150 1.6 3.2 0.00 0.00 0.00 38 4236.7
20260504212914 29 222 4.8 12.9 0.00 0.00 0.00 36 4236.7
20260504212409 29 252 4.8 8.0 0.00 0.00 0.00 36 4236.9
20260504211908 28 153 3.2 3.2 0.00 0.00 0.00 39 4237.1
20260504211403 28 187 3.2 4.8 0.00 0.00 0.00 37 4237.2
20260504210900 29 194 4.8 4.8 0.00 0.00 0.00 35 4237.4
20260504210357 30 179 4.8 8.0 0.00 0.00 0.00 36 4237.4
20260504205854 30 228 3.2 3.2 0.00 0.00 0.00 36 4237.5
20260504205352 29 79 3.2 3.2 0.00 0.00 0.00 38 4237.6
20260504204850 29 193 1.6 1.6 0.00 0.00 0.00 37 4237.8
20260504204348 28 189 3.2 4.8 0.00 0.00 0.00 36 4237.7
20260504203848 28 158 3.2 3.2 0.00 0.00 0.00 39 4238.0
20260504203344 28 224 3.2 4.8 0.00 0.00 0.00 38 4238.1
20260504202840 28 219 4.8 8.0 0.00 0.00 0.00 35 4238.2
20260504202337 29 224 1.6 3.2 0.00 0.00 0.00 38 4238.0
20260504201833 29 200 1.6 3.2 0.00 0.00 0.00 37 4238.3
20260504201331 29 125 6.4 9.7 0.00 0.00 0.00 34 4238.4
20260504200828 29 167 3.2 3.2 0.00 0.00 0.00 35 4238.6
20260504200325 28 240 6.4 9.7 0.00 0.00 0.00 35 4238.5
20260504195821 28 103 1.6 4.8 0.00 0.00 0.00 39 4238.9
20260504195317 28 172 3.2 4.8 0.00 0.00 0.00 38 4238.8
20260504194814 28 122 3.2 4.8 0.00 0.00 0.00 36 4239.1
20260504194310 28 133 3.2 4.8 0.00 0.00 0.00 36 4239.2
20260504193806 28 147 4.8 8.0 0.00 0.00 0.00 37 4239.1
20260504193304 28 134 3.2 4.8 0.00 0.00 0.00 38 4239.3
20260504192802 28 167 3.2 4.8 0.00 0.00 0.00 37 4239.3
20260504192300 27 152 3.2 4.8 0.00 0.00 0.00 38 4239.4
20260504191758 28 140 8.0 11.3 0.00 0.00 0.00 38 4239.3
20260504191255 27 316 6.4 8.0 0.00 0.00 0.00 38 4239.5
20260504190750 27 96 3.2 3.2 0.00 0.00 0.00 37 4239.5
20260504190247 27 194 1.6 1.6 0.00 0.00 0.00 38 4239.6
20260504185744 27 154 3.2 8.0 0.00 0.00 0.00 39 4239.7
20260504185241 27 246 3.2 3.2 0.00 0.00 0.00 39 4239.7
20260504184737 28 187 4.8 8.0 0.00 0.00 0.00 35 4239.7
20260504184232 27 153 3.2 3.2 0.00 0.00 0.00 36 4239.9
20260504183728 28 194 3.2 4.8 0.00 0.00 0.00 37 4240.3
20260504183226 28 124 4.8 9.7 0.00 0.00 0.00 38 4240.0
20260504182724 27 173 1.6 3.2 0.00 0.00 0.00 38 4240.1
20260504182221 28 195 3.2 3.2 0.00 0.00 0.00 37 4240.0
20260504181718 27 356 3.2 3.2 0.00 0.00 0.00 38 4240.4
20260504181215 27 124 4.8 4.8 0.00 0.00 0.00 38 4240.4
20260504180715 27 191 6.4 8.0 0.00 0.00 0.00 39 4240.5
20260504180213 27 213 3.2 4.8 0.00 0.00 0.00 40 4240.5
20260504175710 26 196 3.2 4.8 0.00 0.00 0.00 38 4240.6
20260504175206 26 111 3.2 4.8 0.00 0.00 0.00 39 4240.7
20260504174704 27 77 6.4 8.0 0.00 0.00 0.00 37 4240.5
20260504174202 27 142 0.0 1.6 0.00 0.00 0.00 39 4240.8
20260504173658 26 178 3.2 4.8 0.00 0.00 0.00 39 4240.8
20260504173155 26 132 0.0 1.6 0.00 0.00 0.00 38 4240.9
20260504172652 26 94 3.2 3.2 0.00 0.00 0.00 38 4240.9
20260504172148 27 159 3.2 3.2 0.00 0.00 0.00 39 4241.1
20260504171645 26 178 6.4 11.3 0.00 0.00 0.00 37 4241.3
20260504171142 26 67 6.4 9.7 0.00 0.00 0.00 37 4241.0
20260504170638 26 110 4.8 9.7 0.00 0.00 0.00 38 4241.3
20260504170136 26 129 3.2 3.2 0.00 0.00 0.00 38 4241.3
20260504151027 22 189 3.2 4.8 0.00 0.00 0.00 51 4242.3
20260504150525 22 178 3.2 4.8 0.00 0.00 0.00 49 4242.4
20260504140956 20 148 3.2 3.2 0.00 0.00 0.00 60 4242.6
20260504140453 20 181 1.6 3.2 0.00 0.00 0.00 61 4242.9
20260504130417 16 167 0.0 1.6 0.00 0.00 0.00 72 4242.7